www.pogodaiklimat.ru

Погода и климат >> Архив погоды >> Австралия >> Shark Bay Airport


ПОГОДА в Shark Bay Airport

  • Прогноз погоды в Shark Bay Airport
  • Монитор погоды в Shark Bay Airport
  • Климат города

АРХИВ ПОГОДЫ в Shark Bay Airport

Время (UTC), дата Ветер
(напр.,м/с)
 
Видим.   Явления Облачность Т
(С)
Тd
(С)
f
(%)
Тe
(С)
Тes
(С)
Комфортность P
(гПа)
Po
(гПа)
Тmin
(С)
Tmax
(С)
R
(мм)
R24
(мм)
S
(см)
22 17.04 ЮВ 6 н/о н/о +18.6 +13.2 71 +19 +19 1016.3 1012.3
00 18.04 ЮВ 6 н/о н/о +19.8 +13.0 65 +21 +21 комфорт 1017.0 1013.0
01 18.04 ЮВ 7 н/о н/о +21.8 +12.6 56 +24 +24 комфорт 1017.2 1013.2 +18.2
03 18.04 ЮВ 6 н/о н/о +27.1 +8.5 31 +27 +27 жарко 1016.4 1012.4
04 18.04 Ю 5 н/о н/о +28.9 +8.6 28 +28 +28 жарко 1015.9 1011.9
06 18.04 ЮЗ 7 н/о н/о +28.7 +9.9 31 +29 +29 жарко 1014.5 1010.5
07 18.04 ЮЗ 7 н/о н/о +29.5 +8.5 27 +29 +29 жарко 1014.0 1010.0
09 18.04 Ю 8 н/о н/о +26.7 +13.1 43 +28 +28 жарко 1014.1 1010.1
10 18.04 Ю 6 н/о н/о +24.2 +14.3 54 +27 +27 жарко 1014.6 1010.6
12 18.04 Ю 5 н/о н/о +21.7 +16.4 72 +26 +26 душно 1015.0 1011.0
13 18.04 Ю 6 н/о н/о +21.3 +16.9 76 +25 +25 комфорт 1015.4 1011.4 +30.0
15 18.04 Ю 6 н/о н/о +20.5 +16.7 79 +24 +24 комфорт 1015.2 1011.2
16 18.04 Ю 6 н/о н/о +19.9 +16.3 80 +22 +22 комфорт 1014.9 1010.9
18 18.04 Ю 6 н/о н/о +18.8 +15.1 79 +19 +19 1014.5 1010.5
19 18.04 Ю 5 н/о н/о +18.2 +14.7 80 +18 +18 1014.1 1010.1
21 18.04 Ю 4 н/о н/о +17.1 +13.8 81 +17 +17 1014.3 1010.3
22 18.04 ЮВ 4 н/о н/о +17.0 +13.9 82 +16 +16 1014.3 1010.3
00 19.04 ЮВ 5 н/о н/о +19.8 +13.7 68 +21 +21 комфорт 1014.8 1010.8
01 19.04 ЮВ 7 н/о н/о +22.2 +12.7 55 +25 +25 комфорт 1015.0 1011.0 +16.8
03 19.04 ЮВ 5 н/о н/о +26.0 +11.7 41 +27 +27 жарко 1014.1 1010.1
04 19.04 Ю 8 н/о н/о +26.2 +13.7 46 +28 +28 жарко 1013.5 1009.5
06 19.04 ЮЗ 6 н/о н/о +27.7 +10.4 34 +28 +28 жарко 1012.1 1008.2
07 19.04 ЮЗ 7 н/о н/о +27.2 +11.7 38 +28 +28 жарко 1012.4 1008.5
09 19.04 Ю 7 н/о н/о +24.7 +14.2 52 +27 +27 жарко 1012.3 1008.4
10 19.04 Ю 7 н/о н/о +22.3 +15.2 64 +26 +26 жарко 1012.8 1008.9
12 19.04 Ю 4 н/о н/о +20.1 +14.0 68 +22 +22 комфорт 1014.2 1010.2
13 19.04 Ю 5 н/о н/о +19.8 +13.7 68 +22 +22 комфорт 1014.6 1010.6 +28.5
15 19.04 Ю 3 н/о н/о +18.3 +13.6 74 +19 +19 1014.5 1010.5
16 19.04 Ю 3 н/о н/о +17.2 +13.1 77 +17 +17 1014.3 1010.3
18 19.04 Ю 4 н/о н/о +17.7 +13.6 77 +18 +18 1014.1 1010.1
19 19.04 ЮВ 4 н/о н/о +17.5 +13.6 78 +17 +17 1014.0 1010.0
21 19.04 ЮВ 4 н/о н/о +16.9 +12.2 74 +16 +16 1014.2 1010.2
22 19.04 ЮВ 4 н/о н/о +16.9 +12.2 74 +16 +16 1014.3 1010.3
00 20.04 ЮВ 6 н/о н/о +19.2 +12.9 67 +20 +20 1014.6 1010.6
01 20.04 В 6 н/о н/о +22.2 +13.3 57 +25 +25 комфорт 1015.7 1011.7 +16.6
03 20.04 В 6 н/о н/о +24.8 +7.0 32 +25 +25 комфорт 1015.0 1011.0
04 20.04 ЮВ 4 н/о н/о +27.3 +6.1 26 +27 +27 жарко 1014.4 1010.4
06 20.04 В 3 н/о н/о +30.2 +0.7 15 +27 +27 жарко 1012.8 1008.9
07 20.04 ЮЗ 5 н/о н/о +28.1 +12.5 38 +29 +29 жарко 1012.7 1008.8
09 20.04 ЮЗ 6 н/о н/о +27.0 +6.4 27 +25 +25 комфорт 1013.3 1009.3
10 20.04 ЮЗ 6 н/о н/о +23.6 +15.4 60 +27 +27 жарко 1013.6 1009.6
12 20.04 Ю 4 н/о н/о +21.0 +14.9 68 +24 +24 комфорт 1014.4 1010.4
13 20.04 ЮВ 3 н/о н/о +19.4 +13.8 70 +21 +21 комфорт 1014.2 1010.2 +30.9
15 20.04 Ю 3 н/о н/о +20.8 +17.0 79 +25 +25 комфорт 1014.2 1010.2
16 20.04 Ю 3 н/о н/о +20.7 +16.5 77 +24 +24 комфорт 1014.2 1010.2
18 20.04 ЮВ 3 н/о н/о +19.4 +16.4 83 +22 +22 комфорт 1013.8 1009.8
19 20.04 ЮВ 4 н/о н/о +19.8 +16.8 83 +22 +22 комфорт 1013.7 1009.7
21 20.04 ЮВ 3 н/о н/о +18.8 +13.6 72 +20 +20 1013.6 1009.6
22 20.04 Ю 4 н/о н/о +19.0 +13.8 72 +20 +20 1014.4 1010.4
00 21.04 ЮВ 4 н/о н/о +22.7 +13.2 55 +26 +26 жарко 1014.9 1010.9
01 21.04 В 6 н/о н/о +26.5 +7.5 30 +26 +26 жарко 1015.5 1011.5 +17.7
03 21.04 ЮВ 3 н/о н/о +30.6 +7.1 23 +29 +29 жарко 1014.7 1010.7
04 21.04 ЮЗ 5 н/о н/о +29.9 +11.4 32 +30 +30 жарко 1013.9 1009.9
06 21.04 ЮЗ 6 н/о н/о +31.3 +8.9 25 +30 +30 жарко 1011.6 1007.7
07 21.04 ЮЗ 5 н/о н/о +31.4 +7.8 23 +30 +30 жарко 1011.4 1007.5
09 21.04 З 4 н/о н/о +31.6 +6.6 21 +30 +30 жарко 1011.2 1007.3
10 21.04 З 5 н/о н/о +26.3 +13.4 45 +28 +28 жарко 1011.5 1007.6
12 21.04 Ю 4 н/о н/о +23.2 +13.4 54 +26 +26 жарко 1013.1 1009.1
13 21.04 Ю 4 н/о н/о +23.0 +12.9 53 +26 +26 жарко 1012.6 1008.7 +33.6
15 21.04 Ю 4 н/о н/о +22.9 +17.8 73 +28 +28 душно 1012.1 1008.2
16 21.04 Ю 2 н/о н/о +22.1 +17.9 77 +27 +27 душно 1012.3 1008.4
18 21.04 Ю 5 н/о н/о +21.8 +18.8 83 +27 +27 душно 1011.5 1007.6
19 21.04 Ю 3 н/о н/о +21.8 +18.4 81 +27 +27 душно 1012.2 1008.3
21 21.04 ЮЗ 3 н/о н/о +20.9 +18.1 84 +26 +26 душно 1012.6 1008.7
22 21.04 Ю 3 н/о н/о +21.4 +18.8 85 +26 +26 душно 1013.4 1009.4
00 22.04 Ю 3 н/о н/о +22.5 +18.7 79 +28 +28 душно 1014.1 1010.1
01 22.04 Ю 3 н/о н/о +23.4 +18.9 76 +30 +30 очень
душно
1014.9 1010.9 +21.0
03 22.04 ЮВ 4 н/о н/о +25.5 +13.7 48 +28 +28 жарко 1013.8 1009.8
04 22.04 В 4 н/о н/о +28.6 +10.3 32 +29 +29 жарко 1013.6 1009.6
06 22.04 ЮЗ 6 н/о н/о +28.9 +13.2 38 +30 +30 жарко 1012.9 1009.0
07 22.04 З 6 н/о н/о +30.4 +13.7 36 +32 +32 жарко 1013.4 1009.4
09 22.04 ЮЗ 4 н/о н/о +26.2 +17.0 57 +30 +30 душно 1014.2 1010.2
10 22.04 ЮЗ 4 н/о н/о +24.8 +18.7 69 +30 +30 душно 1014.7 1010.7
12 22.04 Ю 5 н/о н/о +23.3 +18.8 76 +30 +30 очень
душно
1016.3 1012.3
13 22.04 Ю 5 н/о н/о +22.6 +18.4 77 +28 +28 душно 1016.3 1012.3 +31.1
15 22.04 Ю 5 н/о н/о +21.7 +17.1 75 +26 +26 душно 1015.8 1011.8
16 22.04 Ю 4 н/о н/о +21.5 +16.9 75 +25 +25 комфорт 1015.9 1011.9
18 22.04 Ю 4 н/о н/о +20.1 +16.5 80 +23 +23 комфорт 1015.6 1011.6
19 22.04 Ю 3 н/о н/о +19.7 +16.5 82 +22 +22 комфорт 1015.6 1011.6
21 22.04 Ю 3 н/о н/о +19.2 +15.9 81 +21 +21 комфорт 1016.0 1012.0
22 22.04 Ю 3 н/о н/о +18.5 +15.6 83 +19 +19 1016.5 1012.5
00 23.04 ЮВ 3 н/о н/о +20.8 +17.6 82 +25 +25 комфорт 1017.5 1013.5
01 23.04 ЮВ 6 н/о н/о +23.9 +16.2 62 +27 +27 жарко 1018.1 1014.1 +17.7
03 23.04 ЮВ 5 н/о н/о +26.7 +15.7 51 +30 +30 душно 1017.9 1013.9
04 23.04 ЮВ 6 н/о н/о +25.9 +14.7 50 +28 +28 жарко 1017.3 1013.3
06 23.04 Ю 6 н/о н/о +27.1 +12.7 41 +29 +29 жарко 1015.9 1011.9
07 23.04 Ю 7 н/о н/о +26.7 +12.0 40 +28 +28 жарко 1015.8 1011.8
09 23.04 Ю 6 н/о н/о +25.0 +12.6 46 +27 +27 жарко 1016.1 1012.1
10 23.04 Ю 6 н/о н/о +22.7 +12.6 53 +25 +25 комфорт 1016.6 1012.6
12 23.04 Ю 6 н/о н/о +21.1 +14.3 65 +24 +24 комфорт 1017.6 1013.6
13 23.04 Ю 6 н/о н/о +20.8 +13.5 63 +23 +23 комфорт 1017.8 1013.8 +28.5
15 23.04 Ю 4 н/о н/о +19.1 +13.5 70 +20 +20 1017.6 1013.6
16 23.04 Ю 4 н/о н/о +17.5 +12.6 73 +17 +17 1017.5 1013.5
18 23.04 ЮВ 4 н/о н/о +17.5 +13.8 79 +17 +17 1016.9 1012.9
19 23.04 Ю 4 н/о н/о +17.1 +13.6 80 +17 +17 1016.7 1012.7
21 23.04 ЮВ 5 н/о н/о +16.8 +13.5 81 +16 +16 1017.2 1013.2
22 23.04 ЮВ 5 н/о н/о +16.3 +13.0 81 +15 +15 1017.6 1013.6
00 24.04 Ю 5 н/о н/о +18.0 +13.1 73 +18 +18 1018.7 1014.7
01 24.04 ЮВ 6 н/о н/о +20.9 +11.5 55 +23 +23 комфорт 1019.1 1015.1 +16.2
03 24.04 Ю 6 н/о н/о +23.5 +10.6 44 +25 +25 комфорт 1017.8 1013.8
04 24.04 Ю 6 н/о н/о +25.5 +9.7 37 +26 +26 жарко 1017.0 1013.0
06 24.04 Ю 8 н/о н/о +26.1 +9.9 36 +27 +27 жарко 1015.3 1011.3
07 24.04 Ю 8 н/о н/о +26.9 +10.2 35 +27 +27 жарко 1014.9 1010.9
09 24.04 Ю 9 н/о н/о +22.7 +14.3 59 +26 +26 жарко 1015.5 1011.5
10 24.04 Ю 7 н/о н/о +21.6 +14.7 65 +25 +25 комфорт 1015.7 1011.7
12 24.04 Ю 8 н/о н/о +21.0 +13.7 63 +23 +23 комфорт 1016.6 1012.6
13 24.04 Ю 8 н/о н/о +21.0 +14.4 66 +24 +24 комфорт 1017.1 1013.1 +28.8
15 24.04 Ю 8 н/о н/о +20.6 +15.4 72 +23 +23 комфорт 1016.9 1012.9
18 24.04 Ю 7 н/о н/о +19.2 +13.8 71 +20 +20 1016.1 1012.1
19 24.04 Ю 7 н/о н/о +19.0 +13.6 71 +19 +19 1015.4 1011.4

 

Местоположение метеостанции Shark Bay Airport (Западная Австралия, Австралия): широта -25.90 долгота 113.58 высота над уровнем моря 34 м.

В архиве по умолчанию представлена погода в Shark Bay Airport за последнюю неделю. Архивные данные за месяц целиком и за предыдущие месяцы, начиная с января 2011 года, Вы можете получить, выбрав интересующий диапазон дат из раскрывающегося списка и нажав кнопку "Ввод!".


*Определитесь, кто Вы:
робот инопланетянин человек

Внимание! Время в таблицах - всемирное. Для получения местного времени необходимо прибавить поправку, которая в Shark Bay Airport равна 8 ч.

Смотрите также архив погоды в соседних городах и на ближайших метеорологических станциях:

Погода в Carnarvon Airport (Западная Австралия, Австралия) (114 км)
Погода в Geraldton Airport (Западная Австралия, Австралия) (341 км)
Погода в Learmonth Airport (Западная Австралия, Австралия) (411 км)
Погода в Morawa Airport (Западная Австралия, Австралия) (439 км)
Погода в Mount Magnet Aero (Западная Австралия, Австралия) (488 км)
Погода в Onslow Airport (Западная Австралия, Австралия) (496 км)
Погода в Meekatharra Airport (Западная Австралия, Австралия) (502 км)
Погода в Thevenard Island (Западная Австралия, Австралия) (516 км)
Погода в Paraburdoo Aero (Западная Австралия, Австралия) (520 км)
Погода в Rottnest Island Lighthouse (Западная Австралия, Австралия) (529 км)

Пояснения к столбцам:

Ветер - указаны скорость ветра в м/с - средняя за 10 мин, порывы в срок и между сроками (в фигурных скобках) и направление, откуда дует ветер: С - северный, СВ - северо-восточный, В - восточный, ЮВ - юго-восточный, Ю - южный, ЮЗ - юго-западный, З - западный, СЗ - северо-западный.
Видимость - горизонтальная дальность видимости в метрах или километрах. При видимости от 1 до 10 км при отсутствии осадков обычно наблюдается дымка, при ухудшении видимости до 1 км и менее - туман. В сухую погоду видимость может ухудшаться дымом, пылью или мглою.
Явления - указаны атмосферные явления, наблюдавшиеся в срок или в последний час перед сроком; фигурными скобками обозначены явления, наблюдавшиеся между сроками (за 1-3 часа до срока); квадратными скобками обозначены град или гололедные отложения с указанием их диаметра в мм.
Облачность - указаны через наклонную черту общая и нижняя облачность в баллах и высота нижней границы облаков в метрах; квадратными скобками обозначены формы облаков: Ci - перистые, Cs - перисто-слоистые, Cc - перисто-кучевые, Ac - высококучевые, As - высокослоистые, Sc - слоисто-кучевые, Ns - слоисто-дождевые, Cu - кучевые, Cb - кучево-дождевые. Подробнее классификацию облаков см. в Атласе облаков (PDF).
T - Температура воздуха - температура, измеренная на высоте 2 м над землей.
Td - Температура точки росы - температура, при понижении до которой содержащийся в воздухе водяной пар достигнет насыщения.
f - Относительная влажность воздуха - влажноcть воздуха, измеренная на высоте 2 м над землей.
Te - Эффективная температура - температура, которую ощущает одетый по сезону человек в тени. Характеристика душности погоды. При расчете учитывается влияние влажности воздуха и скорости ветра на теплоощущения человека.
Tes - Эффективная температура на солнце - температура, которую ощущает человек, с поправкой на солнечный нагрев. Характеристика знойности погоды. Зависит от высоты солнца над горизонтом, облачности и скорости ветра. Ночью, в пасмурную погоду, а также при ветре 12 м/с и более поправка равна нулю.
P - Атмосферное давление - приведенное к уровню моря атмосферное давление.
Po - Атмосферное давление - измеренное на уровне метеостанции атмосферное давление.
Tmin - Минимальная температура - минимум температуры воздуха на высоте 2 м над землей.
Tmax - Максимальная температура - максимум температуры воздуха на высоте 2 м над землей.
R - Количество осадков - Количество выпавших осадков за период времени, мм. При наведении курсора мыши на число - период времени, за который выпало указанное количество осадков.
R24 - Количество осадков - Количество выпавших осадков за 24 часа, мм.
S - Снежный покров - Высота снежного покрова, см. При наведении курсора мыши на число - состояние снежного покрова и степень покрытия местности в баллах.